Location: Les Jeannots
(43.2262°N, 5.5774°E)
Time: 07:55:41
(UTC+00:00)

USA 215 - Pass Details

Date: 05 July 2020
Orbit: 1102 x 1106 km, 123.0° (Epoch: 31 July)

Event Time Altitude Azimuth Distance (km) Brightness Sun altitude
Rises 22:42:12 0° 49° (NE) 3,925 6.5 -22.7°
Reaches altitude 10° 22:44:48 10° 43° (NE) 2,965 5.9 -22.8°
Maximum altitude 22:50:53 43° 335° (NNW) 1,500 4.4 -23.0°
Drops below altitude 10° 22:56:58 10° 266° (W) 2,958 5.6 -23.3°
Sets 22:59:34 0° 260° (W) 3,915 6.2 -23.4°
